Torna al catalogo

CZ-6A DEB

AttivoSSO
NORAD 54278·DEBRIS·🇨🇳 China

Lanciato Nov 11, 2022 da Taiyuan Satellite Launch Center

Loading…

Prossimi Passaggi (prossime 24 ore)

TLE

AggiornatoSource: Space-Track

Epoca: Sep 13, 2026, 23:06 UTC

1 54278U 22151V   26256.96282669  .00003362  00000-0  11533-2 0  9995
2 54278  98.6692 253.4037 0104012 259.5598  99.3852 14.33805489198091

Traccia CZ-6A DEB in tempo reale con AllMySat

Download on the App Store